Flag for Germany Weather past 2 weeks in Neumünster, Schleswig-Holstein, Germany

Now
81 °F

Sunny.


Feels Like: 80 °F
Forecast: 64 / 79 °F
Wind: 6 mph from East

Location: Itzehoe

Current Time: Jul 24, 2014 at 3:41:45 PM

Latest Report: Jul 24, 2014 at 3:00 PM


Visibility: 9 mi

Pressure: 30.07 "Hg

Humidity: 35%

Dew point: 50 °F

Location of NeumünsterLocation

Historic Weather in Neumünster — Graph

°F

Neumünster temperature yesterday

Maximum temperature yesterday: 80 °F (at 4:00 PM)
Minimum temperature yesterday: 58 °F (at 6:00 AM)
Average temperature yesterday: 69 °F

Past Weeks' High & Low Weather Summary

 TemperatureHumidityPressure
High87 °F (Jul 19, 5:00 PM)99% (Jul 16, 7:00 AM)30.21 "Hg (Jul 16, 7:00 AM)
Low48 °F (Jul 17, 6:00 AM)35% (Jul 19, 4:00 PM)29.65 "Hg (Jul 14, 3:00 AM)
Average69 °F71%29.99 "Hg
* Reported Jul 9 3:00 PM — Jul 24 1:00 PM, Neumünster, Weather by CustomWeather, © 2014

Note: Actual official high and low records may vary slightly from our data, if they occured in-between our weather recording intervals... More about our weather records

Advertising

Neumünster weather history for previous 24 hours

 ConditionsComfort  
Time TempWeatherWind HumidityBarometerVisibility
1:00 PM
Jul 24
79 °FSunny.6 mph48%30.09 "Hg7 mi
12:00 PM78 °FSunny.7 mph48%30.09 "Hg6 mi
10:00 AM74 °FSunny.6 mph58%30.10 "Hg6 mi
9:00 AM71 °FSunny.6 mph65%30.11 "Hg9 mi
8:00 AM67 °FSunny.5 mph82%30.10 "Hg9 mi
7:00 AM63 °FSunny.3 mph89%30.10 "Hg11 mi
6:00 AM58 °FSunny.2 mph90%30.11 "Hg12 mi
4:00 AM59 °FClear.3 mph90%30.12 "Hg11 mi
3:00 AM60 °FClear.3 mph89%30.13 "Hg11 mi
2:00 AM61 °FClear.3 mph83%30.14 "Hg14 mi
1:00 AM62 °FClear.3 mph76%30.14 "Hg17 mi
12:00 AM63 °FClear.3 mph68%30.14 "Hg19 mi
10:00 PM
Jul 23
67 °FClear.3 mph52%30.14 "Hg22 mi
9:00 PM72 °FSunny.6 mph40%30.14 "Hg22 mi
7:00 PM77 °FSunny.8 mph40%30.14 "Hg7 mi
6:00 PM78 °FSunny.8 mph40%30.13 "Hg8 mi
4:00 PM80 °FScattered clouds.7 mph44%30.15 "Hg9 mi
3:00 PM79 °FScattered clouds.8 mph47%30.16 "Hg7 mi
Weather by CustomWeather, © 2014

See weather overviewHow to use our weather pages